M I D A S
Marine Information and Data Acquisition System
Tripno 1200 of the Zeeleeuw from 2006-12-18 07:49:54 to 2006-12-18 13:37:40
Back to CruiseResearch ActivitiesStationsMapUnderway DataData graphs

EquipmentUnitsComments
TimeDGPSUTC
LatitudeDGPSDM.mWGS84
LongitudeDGPSDM.mWGS84
SpeedMeteo Stationm/sRelative wind speed
DirectionMeteo StationdegRelative wind direction
TemperatureMeteo Stationdeg CelciusAir temperature
PressureMeteo StationPaAtmospheric pressure
HumidityMeteo Station%Relative humidity
Missing or incorrect values are displayed as -999
Metereological data collected by the RV Zeeleeuw from 2006-12-18 07:00:44 to 2006-12-18 13:42:36
Time Latitude Longitude Speed Direction Temperature Pressure Humidity
2006-12-18 07:50 51°13.62 2°56.02 1.5 38 2.2 102780 100
2006-12-18 07:51 51°13.64 2°55.943 1 20 2.2 102780 100
2006-12-18 07:52 51°13.659 2°55.886 2.1 78 2.2 102780 100
2006-12-18 07:53 51°13.708 2°55.791 2 43 2.3 102780 100
2006-12-18 07:54 51°13.755 2°55.703 2.6 24 2.4 102780 100
2006-12-18 07:55 51°13.758 2°55.712 2.7 30 2.4 102780 100
2006-12-18 07:56 51°13.754 2°55.676 1.8 31 2.5 102780 100
2006-12-18 07:57 51°13.769 2°55.69 1.8 81 2.5 102780 100
2006-12-18 07:58 51°13.771 2°55.68 1.2 280 2.5 102790 100
2006-12-18 07:59 51°13.85 2°55.623 1.7 283 2.5 102790 100
2006-12-18 08:00 51°13.964 2°55.536 2.8 287 2.6 102780 100
2006-12-18 08:01 51°14.089 2°55.443 1.8 286 2.9 102780 100
2006-12-18 08:02 51°14.197 2°55.345 1.7 283 3 102780 100
2006-12-18 08:03 51°14.305 2°55.178 4.1 280 3.2 102780 100
2006-12-18 08:04 51°14.44 2°54.97 4.3 282 3.5 102770 100
2006-12-18 08:05 51°14.616 2°54.78 5.5 286 3.9 102780 100
2006-12-18 08:06 51°14.799 2°54.573 6.3 286 4.1 102780 100
2006-12-18 08:07 51°14.988 2°54.362 5.6 281 4.1 102780 100
2006-12-18 08:08 51°15.178 2°54.163 5.4 281 4.1 102780 100
2006-12-18 08:09 51°15.373 2°53.965 6.3 280 4.2 102770 100
2006-12-18 08:10 51°15.569 2°53.765 5.4 284 4.3 102780 100
2006-12-18 08:11 51°15.767 2°53.57 6.2 285 4.5 102770 100
2006-12-18 08:12 51°15.963 2°53.383 5.5 282 4.7 102780 100
2006-12-18 08:13 51°16.16 2°53.198 5.7 280 4.6 102780 100
2006-12-18 08:14 51°16.361 2°53.026 5.2 286 4.7 102780 100
2006-12-18 08:15 51°16.563 2°52.858 5.2 281 4.9 102780 100
2006-12-18 08:16 51°16.762 2°52.687 5.2 280 5 102780 100
2006-12-18 08:17 51°16.973 2°52.575 4.7 280 5.1 102780 100
2006-12-18 08:18 51°17.194 2°52.526 4.8 286 5.2 102780 100
2006-12-18 08:19 51°17.418 2°52.491 4.6 284 5.4 102780 100
2006-12-18 08:20 51°17.642 2°52.489 4 279 5.5 102780 100
2006-12-18 08:21 51°17.865 2°52.517 4.7 286 5.5 102790 100
2006-12-18 08:22 51°18.084 2°52.591 4 280 5.6 102780 100
2006-12-18 08:23 51°18.278 2°52.769 4.6 282 5.7 102780 100
2006-12-18 08:24 51°18.446 2°53.01 5.2 285 5.8 102790 100
2006-12-18 08:25 51°18.617 2°53.247 5 282 5.8 102780 100
2006-12-18 08:26 51°18.79 2°53.482 5 280 5.8 102790 100
2006-12-18 08:27 51°18.962 2°53.72 4.5 281 5.9 102790 100
2006-12-18 08:28 51°19.135 2°53.957 4.7 285 5.9 102780 100
2006-12-18 08:29 51°19.308 2°54.192 4 280 6 102780 100
2006-12-18 08:30 51°19.481 2°54.428 3.9 285 6 102790 100
2006-12-18 08:31 51°19.65 2°54.671 4.6 280 6 102790 100
2006-12-18 08:32 51°19.816 2°54.922 4.4 279 6.1 102790 100
2006-12-18 08:33 51°19.983 2°55.172 4.4 280 6.1 102790 100
2006-12-18 08:34 51°20.148 2°55.425 4 280 6.2 102790 100
2006-12-18 08:35 51°20.314 2°55.676 4.3 281 6.1 102790 100
2006-12-18 08:36 51°20.477 2°55.929 4.1 286 6.2 102790 100
2006-12-18 08:37 51°20.642 2°56.184 4 285 6.2 102790 100
2006-12-18 08:38 51°20.807 2°56.439 4.2 284 6.2 102790 100
2006-12-18 08:39 51°20.97 2°56.694 4.7 286 6.3 102790 100
2006-12-18 08:40 51°21.102 2°56.995 4.7 285 6.4 102790 100
2006-12-18 08:41 51°21.228 2°57.305 5.4 285 6.4 102790 100
2006-12-18 08:42 51°21.355 2°57.615 5.1 281 6.4 102790 100
2006-12-18 08:43 51°21.488 2°57.918 5.2 281 6.5 102790 100
2006-12-18 08:44 51°21.588 2°58.119 2.4 1 6.5 102790 100
2006-12-18 08:45 51°21.662 2°58.199 1.3 77 6.6 102800 100
2006-12-18 08:46 51°21.677 2°58.215 2.4 82 6.6 102790 100
2006-12-18 08:47 51°21.68 2°58.229 3 77 6.6 102800 100
2006-12-18 08:48 51°21.686 2°58.247 2.7 79 6.6 102800 100
2006-12-18 08:49 51°21.693 2°58.267 2.5 79 6.6 102800 100
2006-12-18 08:50 51°21.698 2°58.285 2.8 80 6.6 102800 100
2006-12-18 08:51 51°21.702 2°58.304 2.6 73 6.6 102800 100
2006-12-18 08:52 51°21.728 2°58.322 2 287 6.6 102800 100
2006-12-18 08:53 51°21.755 2°58.269 4.3 285 6.6 102800 100
2006-12-18 08:54 51°21.73 2°58.196 4.6 280 6.7 102800 100
2006-12-18 08:55 51°21.694 2°58.148 4.2 285 6.7 102800 99
2006-12-18 08:56 51°21.682 2°58.141 3.6 285 6.7 102800 99
2006-12-18 08:57 51°21.677 2°58.146 3.1 285 6.8 102800 99
2006-12-18 08:58 51°21.672 2°58.151 3.3 287 6.8 102810 99
2006-12-18 08:59 51°21.669 2°58.155 3.9 279 6.8 102800 99
2006-12-18 09:00 51°21.668 2°58.159 3.5 280 6.8 102810 99
2006-12-18 09:01 51°21.668 2°58.164 4.7 281 6.8 102800 99
2006-12-18 09:02 51°21.669 2°58.171 5.2 285 6.9 102800 99
2006-12-18 09:03 51°21.671 2°58.179 4.5 282 6.9 102810 98
2006-12-18 09:04 51°21.672 2°58.188 3.7 282 6.8 102800 98
2006-12-18 09:05 51°21.675 2°58.199 3.9 284 6.8 102810 98
2006-12-18 09:06 51°21.676 2°58.211 4.1 284 6.8 102810 98
2006-12-18 09:07 51°21.68 2°58.224 4.3 283 6.9 102800 98
2006-12-18 09:08 51°21.684 2°58.226 3.3 284 6.9 102800 98
2006-12-18 09:09 51°21.691 2°58.175 3.9 280 6.9 102800 98
2006-12-18 09:10 51°21.691 2°58.136 3.6 280 6.9 102800 98
2006-12-18 09:11 51°21.696 2°58.126 4.4 281 6.9 102800 97
2006-12-18 09:12 51°21.705 2°58.124 2.4 282 6.9 102800 97
2006-12-18 09:13 51°21.714 2°58.126 2.9 285 6.9 102800 97
2006-12-18 09:14 51°21.721 2°58.131 3.8 282 6.9 102800 97
2006-12-18 09:15 51°21.728 2°58.138 3.5 286 6.8 102810 97
2006-12-18 09:16 51°21.734 2°58.147 3.5 282 6.8 102810 96
2006-12-18 09:17 51°21.74 2°58.158 3.7 280 6.8 102810 96
2006-12-18 09:18 51°21.747 2°58.165 4.2 282 6.8 102800 96
2006-12-18 09:19 51°21.75 2°58.127 4.3 286 6.8 102810 96
2006-12-18 09:20 51°21.739 2°58.098 3.5 285 6.8 102800 96
2006-12-18 09:21 51°21.737 2°58.092 3.4 282 6.8 102820 95
2006-12-18 09:22 51°21.737 2°58.089 3.9 286 6.8 102820 95
2006-12-18 09:23 51°21.739 2°58.091 3.6 279 6.9 102820 95
2006-12-18 09:24 51°21.743 2°58.094 3.4 285 6.9 102820 95
2006-12-18 09:25 51°21.747 2°58.1 4 282 7 102820 95
2006-12-18 09:26 51°21.751 2°58.108 4 279 7 102810 95
2006-12-18 09:27 51°21.757 2°58.117 4.1 279 7 102820 95
2006-12-18 09:28 51°21.762 2°58.129 3.4 282 7.1 102820 95
2006-12-18 09:29 51°21.769 2°58.141 4.1 281 7 102830 94
2006-12-18 09:30 51°21.776 2°58.155 4.1 286 7 102820 94
2006-12-18 09:31 51°21.783 2°58.17 3.6 285 7 102830 94
2006-12-18 09:32 51°21.791 2°58.185 4.1 286 7 102820 94
2006-12-18 09:33 51°21.799 2°58.202 4.4 286 7 102820 94
2006-12-18 09:34 51°21.806 2°58.216 3.1 278 7 102820 94
2006-12-18 09:35 51°21.8 2°58.197 4.5 287 7 102820 94
2006-12-18 09:36 51°21.769 2°58.172 5.2 286 6.9 102810 94
2006-12-18 09:37 51°21.733 2°58.135 4.6 281 6.9 102810 94
2006-12-18 09:38 51°21.715 2°58.125 4.7 285 6.8 102820 94
2006-12-18 09:39 51°21.718 2°58.139 4.2 279 6.7 102830 94
2006-12-18 09:40 51°21.725 2°58.154 4.1 282 6.7 102830 94
2006-12-18 09:41 51°21.735 2°58.17 3.4 287 6.6 102830 94
2006-12-18 09:42 51°21.745 2°58.188 3.6 283 6.5 102830 94
2006-12-18 09:43 51°21.756 2°58.207 3.5 282 6.5 102840 94
2006-12-18 09:44 51°21.766 2°58.226 2.5 281 6.4 102830 94
2006-12-18 09:45 51°21.777 2°58.239 3.6 279 6.4 102800 94
2006-12-18 09:46 51°21.771 2°58.224 4.5 284 6.4 102790 95
2006-12-18 09:47 51°21.736 2°58.211 5.5 285 6.3 102790 95
2006-12-18 09:48 51°21.698 2°58.177 5.1 284 6.2 102800 94
2006-12-18 09:49 51°21.692 2°58.167 5.1 280 6.2 102800 95
2006-12-18 09:50 51°21.703 2°58.173 3.8 281 6.2 102800 95
2006-12-18 09:51 51°21.717 2°58.185 4.1 284 6.2 102800 95
2006-12-18 09:52 51°21.73 2°58.198 3.2 286 6.2 102840 95
2006-12-18 09:53 51°21.743 2°58.215 4 279 6.2 102840 96
2006-12-18 09:54 51°21.756 2°58.234 4.5 280 6.2 102840 96
2006-12-18 09:55 51°21.771 2°58.256 3.5 282 6.2 102840 96
2006-12-18 09:56 51°21.784 2°58.275 4.6 280 6.2 102840 96
2006-12-18 09:57 51°21.78 2°58.236 5.8 281 6.2 102840 96
2006-12-18 09:58 51°21.738 2°58.189 5.6 287 6.1 102840 96
2006-12-18 09:59 51°21.712 2°58.157 5.8 282 6.2 102840 96
2006-12-18 10:00 51°21.7 2°58.142 4.9 280 6.1 102840 96
2006-12-18 10:01 51°21.702 2°58.151 4 281 6.1 102840 96
2006-12-18 10:02 51°21.708 2°58.16 4.4 281 6.2 102840 96
2006-12-18 10:03 51°21.712 2°58.165 4.6 286 6.2 102840 96
2006-12-18 10:04 51°21.712 2°58.167 4.9 282 6.3 102850 96
2006-12-18 10:05 51°21.71 2°58.17 5.1 281 6.3 102840 96
2006-12-18 10:06 51°21.708 2°58.173 4.8 286 6.2 102840 96
2006-12-18 10:07 51°21.707 2°58.175 4.7 282 6.2 102850 96
2006-12-18 10:08 51°21.706 2°58.175 4.8 284 6.3 102840 96
2006-12-18 10:09 51°21.707 2°58.175 4.4 286 6.3 102850 95
2006-12-18 10:10 51°21.711 2°58.181 4.4 287 6.3 102840 95
2006-12-18 10:11 51°21.719 2°58.194 4.1 280 6.3 102840 95
2006-12-18 10:12 51°21.729 2°58.212 4 287 6.3 102850 95
2006-12-18 10:13 51°21.74 2°58.232 4.3 280 6.4 102840 95
2006-12-18 10:14 51°21.753 2°58.254 4.8 286 6.4 102850 95
2006-12-18 10:15 51°21.763 2°58.273 4.6 281 6.4 102850 94
2006-12-18 10:16 51°21.77 2°58.287 4.6 284 6.4 102840 94
2006-12-18 10:17 51°21.771 2°58.29 4.9 281 6.4 102840 94
2006-12-18 10:18 51°21.75 2°58.262 5.6 279 6.4 102840 94
2006-12-18 10:19 51°21.722 2°58.211 5.9 280 6.4 102840 93
2006-12-18 10:20 51°21.692 2°58.158 5.1 280 6.4 102830 93
2006-12-18 10:21 51°21.68 2°58.152 5 281 6.4 102840 93
2006-12-18 10:22 51°21.682 2°58.154 4.5 285 6.4 102840 93
2006-12-18 10:23 51°21.684 2°58.156 4.9 284 6.5 102840 93
2006-12-18 10:24 51°21.685 2°58.16 4.8 280 6.5 102830 92
2006-12-18 10:25 51°21.683 2°58.164 4.3 282 6.5 102850 92
2006-12-18 10:26 51°21.682 2°58.168 4.4 286 6.4 102840 92
2006-12-18 10:27 51°21.684 2°58.167 4.5 279 6.5 102850 92
2006-12-18 10:28 51°21.69 2°58.165 4.1 283 6.5 102850 92
2006-12-18 10:29 51°21.696 2°58.165 4.3 285 6.5 102840 92
2006-12-18 10:30 51°21.698 2°58.168 4 280 6.5 102850 92
2006-12-18 10:31 51°21.698 2°58.173 3.9 280 6.5 102850 91
2006-12-18 10:32 51°21.698 2°58.176 5.1 280 6.5 102840 91
2006-12-18 10:33 51°21.699 2°58.179 4.6 285 6.5 102840 90
2006-12-18 10:34 51°21.7 2°58.183 4.3 285 6.4 102840 90
2006-12-18 10:35 51°21.7 2°58.188 4.5 285 6.4 102830 90
2006-12-18 10:36 51°21.701 2°58.192 4.2 282 6.4 102840 90
2006-12-18 10:37 51°21.701 2°58.198 3.9 285 6.4 102840 90
2006-12-18 10:38 51°21.696 2°58.179 5.5 281 6.5 102840 90
2006-12-18 10:39 51°21.631 2°58.033 8.4 286 6.5 102830 90
2006-12-18 10:40 51°21.546 2°57.836 9.4 285 6.5 102830 89
2006-12-18 10:41 51°21.484 2°57.673 7 279 6.5 102830 89
2006-12-18 10:42 51°21.447 2°57.591 5.9 281 6.6 102830 89
2006-12-18 10:43 51°21.427 2°57.547 4.8 280 6.6 102830 89
2006-12-18 10:44 51°21.421 2°57.515 4.4 288 6.6 102830 89
2006-12-18 10:45 51°21.421 2°57.493 4.1 287 6.7 102830 89
2006-12-18 10:46 51°21.418 2°57.482 4.6 282 6.8 102830 90
2006-12-18 10:47 51°21.417 2°57.476 4.2 285 6.7 102830 89
2006-12-18 10:48 51°21.417 2°57.474 4.5 280 6.8 102830 89
2006-12-18 10:49 51°21.417 2°57.474 4.2 282 6.8 102840 89
2006-12-18 10:50 51°21.419 2°57.474 4.2 285 6.8 102840 89
2006-12-18 10:51 51°21.421 2°57.475 3.7 285 6.8 102840 89
2006-12-18 10:52 51°21.423 2°57.477 4.1 285 6.8 102840 89
2006-12-18 10:53 51°21.425 2°57.479 3.7 281 6.8 102840 89
2006-12-18 10:54 51°21.429 2°57.48 4 281 6.8 102840 90
2006-12-18 10:55 51°21.433 2°57.48 3.7 281 6.8 102840 89
2006-12-18 10:56 51°21.439 2°57.479 4.1 286 6.8 102840 89
2006-12-18 10:57 51°21.443 2°57.48 3.7 286 6.8 102840 89
2006-12-18 10:58 51°21.447 2°57.483 4 280 6.8 102850 89
2006-12-18 10:59 51°21.45 2°57.489 3.6 281 6.8 102840 89
2006-12-18 11:00 51°21.451 2°57.496 3.7 282 6.8 102840 90
2006-12-18 11:01 51°21.454 2°57.502 3.9 285 6.7 102840 89
2006-12-18 11:02 51°21.457 2°57.506 3.5 282 6.7 102840 90
2006-12-18 11:03 51°21.463 2°57.509 3.6 281 6.7 102840 90
2006-12-18 11:04 51°21.47 2°57.506 3.6 285 6.7 102840 90
2006-12-18 11:05 51°21.47 2°57.491 3.9 281 6.7 102840 90
2006-12-18 11:06 51°21.461 2°57.472 4.4 281 6.7 102840 90
2006-12-18 11:07 51°21.455 2°57.458 3.9 280 6.7 102840 90
2006-12-18 11:08 51°21.449 2°57.452 4.1 280 6.7 102840 89
2006-12-18 11:09 51°21.45 2°57.446 3.7 287 6.6 102840 89
2006-12-18 11:10 51°21.452 2°57.443 3.4 286 6.6 102840 89
2006-12-18 11:11 51°21.458 2°57.44 3.8 279 6.6 102840 89
2006-12-18 11:12 51°21.465 2°57.437 4 288 6.6 102840 89
2006-12-18 11:13 51°21.472 2°57.437 4.2 286 6.7 102840 89
2006-12-18 11:14 51°21.48 2°57.439 3.6 280 6.7 102840 88
2006-12-18 11:15 51°21.491 2°57.448 3.4 285 6.7 102840 88
2006-12-18 11:16 51°21.503 2°57.461 3.6 281 6.8 102850 88
2006-12-18 11:17 51°21.517 2°57.477 3.6 282 6.9 102840 88
2006-12-18 11:18 51°21.532 2°57.495 3 285 6.9 102840 88
2006-12-18 11:19 51°21.547 2°57.51 3.7 281 7 102850 88
2006-12-18 11:20 51°21.553 2°57.478 4.7 285 7 102840 87
2006-12-18 11:21 51°21.525 2°57.405 5.5 281 7 102830 86
2006-12-18 11:22 51°21.52 2°57.379 3.8 286 7 102840 86
2006-12-18 11:23 51°21.532 2°57.365 3.6 284 7 102840 86
2006-12-18 11:24 51°21.541 2°57.36 3.5 281 7 102850 86
2006-12-18 11:25 51°21.547 2°57.366 3.4 281 7 102840 86
2006-12-18 11:26 51°21.55 2°57.379 3.5 285 7 102840 86
2006-12-18 11:27 51°21.552 2°57.394 3.2 288 6.9 102840 85
2006-12-18 11:28 51°21.554 2°57.412 3.4 282 6.9 102840 85
2006-12-18 11:29 51°21.555 2°57.432 3.5 282 6.9 102840 85
2006-12-18 11:30 51°21.544 2°57.444 4.6 283 6.9 102840 85
2006-12-18 11:31 51°21.5 2°57.406 5 282 6.9 102840 85
2006-12-18 11:32 51°21.465 2°57.362 3.5 281 6.9 102840 85
2006-12-18 11:33 51°21.464 2°57.352 3.5 284 6.9 102840 85
2006-12-18 11:34 51°21.464 2°57.344 3.7 284 6.9 102840 84
2006-12-18 11:35 51°21.461 2°57.343 3.7 279 6.9 102840 85
2006-12-18 11:36 51°21.456 2°57.349 3.5 287 6.8 102840 84
2006-12-18 11:37 51°21.453 2°57.36 3.9 279 6.9 102840 84
2006-12-18 11:38 51°21.448 2°57.376 3.8 287 6.9 102840 84
2006-12-18 11:39 51°21.444 2°57.391 3.8 279 6.8 102830 83
2006-12-18 11:40 51°21.443 2°57.404 4 286 6.9 102840 84
2006-12-18 11:41 51°21.445 2°57.411 3.9 280 6.9 102840 84
2006-12-18 11:42 51°21.451 2°57.415 3.8 287 6.9 102840 84
2006-12-18 11:43 51°21.459 2°57.416 3.8 286 7 102800 84
2006-12-18 11:44 51°21.467 2°57.416 3.7 286 7 102800 84
2006-12-18 11:45 51°21.474 2°57.417 4.2 282 7 102800 84
2006-12-18 11:46 51°21.478 2°57.425 3.3 282 7 102800 84
2006-12-18 11:47 51°21.48 2°57.439 3.3 280 7 102810 85
2006-12-18 11:48 51°21.48 2°57.456 3.9 281 6.9 102800 85
2006-12-18 11:49 51°21.48 2°57.474 4 280 6.9 102800 85
2006-12-18 11:50 51°21.48 2°57.491 3.9 287 6.9 102800 85
2006-12-18 11:51 51°21.48 2°57.505 3.7 282 6.8 102800 86
2006-12-18 11:52 51°21.482 2°57.515 3.7 282 6.8 102800 86
2006-12-18 11:53 51°21.484 2°57.523 3.9 280 6.7 102800 86
2006-12-18 11:54 51°21.471 2°57.518 4.3 282 6.8 102800 87
2006-12-18 11:55 51°21.427 2°57.473 3.3 286 6.7 102790 87
2006-12-18 11:56 51°21.41 2°57.452 3.8 285 6.7 102780 87
2006-12-18 11:57 51°21.414 2°57.445 3.8 287 6.7 102800 88
2006-12-18 11:58 51°21.417 2°57.442 4 280 6.8 102800 88
2006-12-18 11:59 51°21.418 2°57.444 4.1 283 6.7 102800 88
2006-12-18 12:00 51°21.416 2°57.446 4.3 281 6.7 102800 88
2006-12-18 12:01 51°21.415 2°57.444 3.9 287 6.6 102790 88
2006-12-18 12:02 51°21.417 2°57.438 3.6 283 6.6 102790 88
2006-12-18 12:03 51°21.419 2°57.431 3.4 284 6.7 102800 88
2006-12-18 12:04 51°21.422 2°57.427 3.3 280 6.7 102800 89
2006-12-18 12:05 51°21.426 2°57.427 3.6 286 6.7 102790 88
2006-12-18 12:06 51°21.43 2°57.43 3 283 6.6 102800 88
2006-12-18 12:07 51°21.434 2°57.435 2.9 286 6.6 102800 88
2006-12-18 12:08 51°21.439 2°57.441 3.7 284 6.6 102800 88
2006-12-18 12:09 51°21.445 2°57.446 3.4 287 6.6 102810 88
2006-12-18 12:10 51°21.452 2°57.45 3 286 6.6 102800 88
2006-12-18 12:11 51°21.459 2°57.456 3.7 283 6.6 102800 88
2006-12-18 12:12 51°21.467 2°57.461 3 285 6.6 102810 88
2006-12-18 12:13 51°21.476 2°57.465 3.2 287 6.6 102800 88
2006-12-18 12:14 51°21.486 2°57.469 3.2 279 6.6 102810 88
2006-12-18 12:15 51°21.497 2°57.474 3.5 281 6.7 102800 88
2006-12-18 12:16 51°21.506 2°57.473 4.1 283 6.7 102800 88
2006-12-18 12:17 51°21.51 2°57.419 4.2 281 6.7 102800 88
2006-12-18 12:18 51°21.547 2°57.37 2 283 6.7 102810 88
2006-12-18 12:19 51°21.566 2°57.376 3.7 287 6.7 102810 88
2006-12-18 12:20 51°21.579 2°57.37 3.6 286 6.7 102800 88
2006-12-18 12:21 51°21.585 2°57.368 3.4 281 6.7 102800 88
2006-12-18 12:22 51°21.586 2°57.372 3.2 282 6.7 102810 88
2006-12-18 12:23 51°21.583 2°57.382 3.4 288 6.7 102810 88
2006-12-18 12:24 51°21.577 2°57.396 3.6 283 6.6 102810 89
2006-12-18 12:25 51°21.533 2°57.394 5.5 287 6.6 102790 89
2006-12-18 12:26 51°21.512 2°57.343 3.3 278 6.6 102790 89
2006-12-18 12:27 51°21.511 2°57.346 3.4 279 6.5 102810 89
2006-12-18 12:28 51°21.508 2°57.348 3.3 280 6.5 102830 89
2006-12-18 12:29 51°21.509 2°57.344 3.7 286 6.5 102840 89
2006-12-18 12:30 51°21.51 2°57.34 4 285 6.5 102840 89
2006-12-18 12:31 51°21.508 2°57.346 3.7 282 6.5 102840 90
2006-12-18 12:32 51°21.503 2°57.354 3.7 280 6.5 102840 90
2006-12-18 12:33 51°21.497 2°57.36 4.1 279 6.5 102830 90
2006-12-18 12:34 51°21.492 2°57.363 3.5 285 6.5 102840 90
2006-12-18 12:35 51°21.488 2°57.361 3.8 286 6.5 102840 90
2006-12-18 12:36 51°21.488 2°57.357 3.2 278 6.5 102840 91
2006-12-18 12:37 51°21.496 2°57.361 3.8 280 6.4 102840 91
2006-12-18 12:38 51°21.51 2°57.374 3.4 287 6.5 102850 91
2006-12-18 12:39 51°21.51 2°57.358 5.4 281 6.4 102850 91
2006-12-18 12:40 51°21.429 2°57.223 9.5 280 6.4 102830 91
2006-12-18 12:41 51°21.293 2°56.989 10 286 6.4 102820 91
2006-12-18 12:42 51°21.144 2°56.748 10 288 6.3 102820 91
2006-12-18 12:43 51°20.994 2°56.51 9.9 283 6.2 102810 91
2006-12-18 12:44 51°20.843 2°56.273 9.7 281 6.2 102820 91
2006-12-18 12:45 51°20.691 2°56.027 10 281 6.2 102810 91
2006-12-18 12:46 51°20.541 2°55.791 9.5 287 6.2 102820 91
2006-12-18 12:47 51°20.391 2°55.549 9.4 279 6.2 102820 91
2006-12-18 12:48 51°20.241 2°55.306 9 285 6.2 102820 92
2006-12-18 12:49 51°20.09 2°55.065 10.1 282 6.2 102830 92
2006-12-18 12:50 51°19.939 2°54.824 10.2 285 6.2 102820 92
2006-12-18 12:51 51°19.787 2°54.582 10.6 284 6.1 102830 92
2006-12-18 12:52 51°19.63 2°54.348 10.7 281 6 102820 91
2006-12-18 12:53 51°19.47 2°54.117 9.8 282 6 102820 92
2006-12-18 12:54 51°19.308 2°53.886 10.1 281 6 102820 92
2006-12-18 12:55 51°19.149 2°53.655 9.6 281 5.9 102820 92
2006-12-18 12:56 51°18.989 2°53.425 10 282 5.8 102830 93
2006-12-18 12:57 51°18.83 2°53.195 9.6 280 5.7 102830 93
2006-12-18 12:58 51°18.663 2°52.978 9.6 281 5.5 102820 93
2006-12-18 12:59 51°18.488 2°52.779 9.7 283 5.4 102830 94
2006-12-18 13:00 51°18.297 2°52.63 10.3 283 5.2 102830 94
2006-12-18 13:01 51°18.085 2°52.559 10.6 281 5.1 102830 94
2006-12-18 13:02 51°17.87 2°52.533 10.7 282 5 102840 95
2006-12-18 13:03 51°17.654 2°52.503 11.2 280 4.9 102770 95
2006-12-18 13:04 51°17.439 2°52.469 10.8 282 4.7 102850 95
2006-12-18 13:05 51°17.222 2°52.434 10.3 288 4.4 102770 95
2006-12-18 13:06 51°17.002 2°52.46 10.6 285 4.3 102780 96
2006-12-18 13:07 51°16.796 2°52.562 10.8 282 4 102780 96
2006-12-18 13:08 51°16.582 2°52.668 11.1 282 3.9 102780 97
2006-12-18 13:09 51°16.375 2°52.762 11.1 284 3.7 102780 97
2006-12-18 13:10 51°16.162 2°52.857 10.2 288 3.6 102770 97
2006-12-18 13:11 51°15.946 2°52.947 10.9 282 3.5 102770 98
2006-12-18 13:12 51°15.731 2°53.038 10.8 282 3.3 102830 98
2006-12-18 13:13 51°15.516 2°53.127 11 281 3.3 102840 98
2006-12-18 13:14 51°15.318 2°53.274 10.9 288 3.1 102780 98
2006-12-18 13:15 51°15.134 2°53.482 10 286 3 102780 98
2006-12-18 13:16 51°14.974 2°53.727 9.7 281 3 102780 99
2006-12-18 13:17 51°14.83 2°53.969 9.6 280 3 102800 99
2006-12-18 13:18 51°14.738 2°54.201 8.1 287 3 102800 99
2006-12-18 13:19 51°14.65 2°54.381 7.5 283 3.1 102810 99
2006-12-18 13:20 51°14.571 2°54.536 7.8 286 2.9 102810 99
2006-12-18 13:21 51°14.511 2°54.669 7.2 285 2.7 102850 99
2006-12-18 13:22 51°14.46 2°54.775 7.2 287 2.5 102810 99
2006-12-18 13:23 51°14.4 2°54.905 8.4 286 2.3 102840 99
2006-12-18 13:24 51°14.354 2°55.07 7.4 288 2.2 102840 99
2006-12-18 13:25 51°14.307 2°55.192 7.2 280 2 102840 100
2006-12-18 13:26 51°14.246 2°55.305 7.1 281 2 102850 100
2006-12-18 13:27 51°14.183 2°55.389 6.1 286 2.1 102850 100
2006-12-18 13:28 51°14.106 2°55.454 3.3 283 2 102860 100
2006-12-18 13:29 51°14.014 2°55.517 6.5 282 2 102870 100
2006-12-18 13:30 51°13.926 2°55.578 5.3 280 2 102870 100
2006-12-18 13:31 51°13.842 2°55.633 6.1 286 2 102870 100
2006-12-18 13:32 51°13.762 2°55.691 5.5 281 2 102870 100
2006-12-18 13:33 51°13.691 2°55.771 5 285 1.9 102870 100
2006-12-18 13:34 51°13.66 2°55.887 5.6 281 1.8 102880 100
2006-12-18 13:35 51°13.619 2°55.995 4.9 283 1.8 102880 100
2006-12-18 13:36 51°13.604 2°56.076 2.9 353 1.7 102880 100